Probability
0 0 0 0 0 0 0 0 0 0 0 0 0 0 0 0 0 0 0 0 0 0 0 0 0 0 0 0 0 0 0 1 2 4 5 7 8 7
0 0 0 0 0 0 0 0 0 0 0 0 0 0 0 0 0 0 0 0 0 0 0 0 0 0 0 0 0 0 0 0 1 2 3 4 5 5
0 0 0 0 0 0 0 0 0 0 0 0 0 0 0 0 0 0 0 0 0 0 0 0 0 0 0 0 0 0 0 0 0 1 1 1 1 2
0 0 0 0 0 0 0 0 0 0 0 0 0 0 0 0 0 0 0 0 0 0 0 0 0 0 0 0 0 0 0 0 0 0 0 0 0 0
0 0 0 0 0 0 0 0 0 0 0 0 0 0 0 0 0 0 0 0 0 0 0 0 0 0 0 0 0 0 0 0 0 0 0 0 0 0
0 0 0 0 0 0 0 0 0 0 0 0 0 0 0 0 0 0 0 0 0 0 0 0 0 0 0 0 0 0 0 0 0 0 0 0 0 0
0 0 0 0 0 0 0 0 0 0 0 0 0 0 0 0 0 0 0 0 0 0 0 0 0 0 0 0 0 0 0 0 0 0 0 0 0 0
0 0 0 0 0 0 0 0 0 0 0 0 0 0 0 0 0 0 0 0 0 0 0 0 0 0 0 0 0 0 0 0 0 0 0 0 0 0
0 0 0 0 0 0 0 0 0 0 0 0 0 0 0 0 0 0 0 0 0 0 0 0 0 0 0 0 0 0 0 0 0 0 0 0 0 0
0 0 0 0 0 0 0 0 0 0 0 0 0 0 0 0 0 0 0 0 0 0 0 0 0 0 0 0 0 0 0 0 0 0 0 0 0 0
0 0 0 0 0 0 0 0 0 0 0 0 0 0 0 0 0 0 0 0 0 0 0 0 0 0 0 0 0 0 0 0 0 0 0 0 0 0
0 0 0 0 0 0 0 0 0 0 0 0 0 0 0 0 0 0 0 0 0 0 0 0 0 0 0 0 0 0 0 0 0 0 0 0 0 0
0 0 0 0 0 0 0 0 0 0 0 0 0 0 0 0 0 0 0 0 0 0 0 0 0 0 0 0 0 0 0 0 0 0 0 0 0 0
0 0 0 0 0 0 0 0 0 0 0 0 0 0 0 0 0 0 0 0 0 0 0 0 0 0 0 0 0 0 0 0 0 0 0 0 0 0
0 0 0 0 0 0 0 0 0 0 0 0 0 0 0 0 0 0 0 0 0 0 0 0 0 0 0 0 0 0 0 0 0 0 0 0 0 0
0 0 0 0 0 0 0 0 0 0 0 0 0 0 0 0 0 0 0 0 0 0 0 0 0 0 0 0 0 0 0 0 0 0 0 0 0 0
0 0 0 0 0 0 0 0 0 0 0 0 0 0 0 0 0 0 0 0 0 0 0 0 0 0 0 0 0 0 0 0 0 0 0 0 0 0
0 0 0 0 0 0 0 0 0 0 0 0 0 0 0 0 0 0 0 0 0 0 0 0 0 0 0 0 0 0 0 0 0 0 0 0 0 0
0 0 0 0 0 0 0 0 0 0 0 0 0 0 0 0 0 0 0 0 0 0 0 0 0 0 0 0 0 0 0 0 0 0 0 0 0 0
0 0 0 0 0 0 0 0 0 0 0 0 0 0 0 0 0 0 0 0 0 0 0 0 0 0 0 0 0 0 0 0 0 0 0 0 0 0
0 0 0 0 0 0 0 0 0 0 0 0 0 0 0 0 0 0 0 0 0 0 0 0 0 0 0 0 0 0 0 0 0 0 0 0 0 0
0 0 0 0 0 0 0 0 0 0 0 0 0 0 0 0 0 0 0 0 0 0 0 0 0 0 0 0 0 0 0 0 0 0 0 0 0 0
0 0 0 0 0 0 0 0 0 0 0 0 0 0 0 0 0 0 0 0 0 0 0 0 0 0 0 0 0 0 0 0 0 0 0 0 0 0
Wind_Speed
3 3 2 2 2 3 3 3 2 2 2 3 2 2 3 3 4 4 4 5 6 5 5 5 5 6 6 7 8 9 10 11 14 17 18 20 21 22
3 3 3 2 2 3 3 3 4 3 3 2 3 3 4 4 5 4 4 7 6 6 6 6 7 7 7 8 8 9 10 11 12 14 17 18 19 21
3 4 5 4 3 3 3 3 4 4 5 4 3 3 4 5 5 4 4 4 4 7 8 8 8 9 9 9 9 10 11 11 12 13 15 17 19 20
5 5 6 4 5 4 3 4 4 5 5 6 3 3 4 4 4 5 4 4 4 7 9 9 9 9 9 10 11 11 11 12 12 13 14 16 18 19
6 6 6 5 6 4 5 5 4 5 5 5 5 3 3 3 3 4 4 4 4 5 7 7 7 7 8 10 11 11 12 12 12 13 14 15 16 17
6 7 7 7 7 7 5 6 5 5 5 5 5 4 4 4 3 4 4 3 4 4 5 5 6 7 7 8 10 11 12 13 13 13 14 14 15 16
7 7 7 9 10 8 6 6 6 5 5 5 5 4 4 4 4 3 4 4 4 4 3 3 3 4 5 7 8 10 11 12 13 14 14 14 15 16
8 7 7 9 10 11 12 11 9 8 7 6 5 6 7 6 4 4 4 3 4 2 2 4 3 6 6 6 8 11 12 12 13 13 14 15 15 16
8 8 7 7 8 7 8 10 10 12 13 9 9 10 8 7 5 5 5 6 6 4 3 6 5 7 7 7 12 13 13 13 13 13 14 14 15 16
10 10 9 9 8 8 7 8 8 9 10 10 10 10 10 8 7 7 6 6 7 6 5 6 6 7 7 7 11 14 14 13 13 13 13 14 14 15
10 10 11 11 12 11 9 9 9 9 10 12 13 12 12 11 8 5 5 5 7 6 5 5 5 6 6 7 8 11 12 12 12 12 12 13 13 13
8 9 13 14 14 12 10 9 10 10 8 6 7 8 9 9 10 10 8 8 7 6 5 6 5 4 5 4 4 4 5 8 11 12 12 12 12 8
8 8 9 14 16 15 13 10 13 10 7 7 6 7 7 6 7 8 9 9 9 9 5 5 5 5 6 5 4 5 5 5 5 6 9 12 12 10
10 9 9 13 14 14 12 13 14 10 6 6 7 7 8 8 7 7 9 10 10 12 9 8 7 7 7 8 7 5 5 5 6 6 6 7 10 13
11 13 13 13 12 11 14 14 11 7 7 7 8 9 8 8 7 5 7 8 10 11 11 12 11 9 9 9 8 8 7 6 6 7 6 6 6 6
11 11 13 12 10 10 9 9 8 8 8 9 8 8 7 6 7 6 6 6 6 8 10 12 12 12 10 11 10 10 8 6 5 5 6 6 6 6
6 5 5 6 7 8 7 7 7 7 8 8 8 8 7 7 7 6 6 6 6 7 7 6 8 9 11 10 9 10 9 9 9 8 7 7 7 7
6 7 8 9 9 9 8 7 7 8 8 8 7 8 7 7 7 6 6 7 8 8 8 7 5 4 5 8 12 12 10 10 9 8 7 8 8 7
8 9 9 9 9 8 8 8 8 7 7 7 7 8 7 7 7 7 7 7 8 9 8 7 6 7 8 9 8 13 11 9 8 8 8 8 8 7
8 9 9 9 8 8 8 7 7 7 6 7 7 7 7 7 7 8 8 9 8 8 8 7 8 9 10 10 8 6 12 11 8 8 7 7 7 6
8 8 8 8 7 7 7 7 7 7 7 6 6 7 7 7 8 8 8 10 9 8 9 9 9 10 8 6 7 8 7 10 10 7 6 6 6 5
7 8 7 7 7 7 7 7 7 7 7 7 7 7 7 7 9 10 8 8 8 9 10 8 7 6 7 8 10 10 9 6 6 7 6 5 4 5
7 7 7 7 7 6 6 7 8 7 6 6 6 7 7 7 7 8 8 8 8 9 9 7 6 6 7 8 9 9 10 8 5 5 4 3 5 7
Wind_Direction
228 223 223 226 213 214 206 193 194 257 283 282 291 302 320 314 314 320 313 310 311 303 291 277 272 266 262 256 251 249 245 242 236 229 226 225 222 221
225 228 234 234 227 217 212 211 209 214 247 258 259 281 298 303 309 311 301 305 301 296 285 274 267 263 261 258 255 252 249 246 242 233 226 224 222 221
238 230 242 235 234 231 217 214 214 209 240 264 254 268 276 285 303 303 295 292 288 285 284 278 270 263 258 256 256 253 250 246 243 239 234 228 224 221
248 239 248 240 236 235 226 227 225 217 229 260 267 262 260 273 283 292 295 294 286 285 284 281 274 266 259 255 254 253 250 248 245 242 239 234 229 224
245 241 247 239 245 241 234 237 238 233 223 242 263 257 263 270 282 284 286 287 286 287 287 285 283 279 270 261 256 252 249 248 246 244 242 239 234 229
242 240 242 236 241 243 241 240 240 241 234 239 256 261 262 264 258 269 282 276 286 292 284 279 282 287 282 276 266 256 250 246 245 244 243 241 237 233
247 243 243 242 241 238 237 237 233 238 241 243 254 258 258 253 251 250 268 282 278 264 275 275 281 285 283 277 273 265 258 251 246 244 242 241 238 235
248 251 251 254 254 252 248 244 230 231 239 241 249 253 259 253 250 245 252 269 278 247 251 276 274 277 275 269 264 263 263 258 252 247 243 240 238 235
241 248 253 250 243 248 256 260 252 240 231 234 246 252 256 248 238 245 239 241 252 256 253 275 266 270 269 267 261 260 261 260 256 250 246 242 239 235
240 240 243 251 246 237 247 256 258 254 243 238 240 247 249 249 237 246 255 257 260 256 232 261 268 267 272 267 261 256 256 258 257 253 248 245 241 237
244 239 237 245 246 233 235 249 261 264 254 241 237 243 246 245 235 237 240 244 261 258 212 232 261 269 270 267 262 254 254 255 257 256 252 248 243 239
247 242 235 235 240 231 227 235 248 257 258 260 251 252 253 253 239 231 235 242 253 261 222 214 245 256 275 257 261 268 264 259 256 256 253 249 241 233
245 245 239 229 232 233 225 228 236 243 250 252 261 264 262 256 248 235 228 230 238 245 229 208 241 240 251 273 277 272 267 268 265 259 250 245 236 223
241 243 239 231 228 230 227 229 235 239 245 247 254 259 260 258 254 244 233 231 236 246 248 228 241 246 254 263 269 268 261 261 262 266 263 247 236 228
242 240 237 233 230 233 233 231 230 229 230 239 248 253 253 255 257 254 246 238 243 246 246 236 236 245 245 252 260 265 272 268 255 256 258 251 241 228
242 246 242 237 232 236 237 232 225 222 224 237 248 254 255 251 249 245 250 244 248 254 241 235 233 233 240 243 250 259 258 259 257 251 257 258 249 237
236 235 232 227 227 229 231 232 228 222 227 235 241 249 250 249 250 240 237 237 238 253 259 240 229 230 236 242 247 250 254 254 253 255 255 261 254 241
226 234 235 231 230 231 230 232 228 227 228 229 232 238 244 246 250 243 234 237 244 249 253 253 237 229 236 239 227 244 249 251 251 244 241 253 259 246
221 235 236 233 230 228 227 229 232 230 222 222 228 233 237 241 245 248 242 240 244 247 250 246 232 230 245 256 238 213 231 244 245 243 238 241 254 252
228 236 238 235 231 229 227 228 234 233 224 223 227 231 232 235 241 244 243 241 244 247 250 242 231 226 234 251 260 242 218 230 239 242 243 243 250 253
241 241 243 242 237 232 232 229 228 230 229 225 228 230 232 233 238 242 244 244 243 247 248 247 240 231 240 250 254 251 240 221 229 239 239 238 243 241
254 247 244 242 240 238 236 232 230 231 231 230 233 233 232 233 240 244 245 245 242 242 249 253 250 230 221 230 243 252 253 236 223 227 239 244 240 233
260 254 249 242 236 234 233 232 231 232 230 231 236 238 237 237 240 243 247 246 246 247 248 250 241 226 229 233 241 247 249 242 225 217 222 253 260 262